+ View the NASA Portal
+ Center for Near-Earth Object Studies
IMPORTANT:
The SSD Announcement email list is now available. Major changes are coming in the near future, including possible hostname and/or URL changes. To be notified of such changes, subscribe to this email list.
Please visit
this page
for more details.
Don't show this message again
JPL Small-Body Database Browser
Search:
[
help
]
226048 (2002 GO88)
Classification:
Main-belt Asteroid
SPK-ID:
2226048
[
Ephemeris
|
Orbit Diagram
|
Orbital Elements
|
Mission Design
|
Physical Parameters
|
Discovery Circumstances
|
Close-Approach Data
]
[ show orbit diagram ]
Orbital Elements at Epoch 2458600.5 (2019-Apr-27.0) TDB
Reference:
JPL 14
(heliocentric ecliptic J2000)
Element
Value
Uncertainty (1-sigma)
Units
e
.1016215542291976
8.8121e-08
a
2.7202461958936
3.6495e-08
au
q
2.44381054958083
2.575e-07
au
i
16.5913404008985
9.0688e-06
deg
node
60.83778530654245
2.9377e-05
deg
peri
95.59761890217281
7.5442e-05
deg
M
333.6477443629808
5.9293e-05
deg
t
p
2458720.457122202307
(2019-Aug-24.95712220)
0.00026965
TDB
period
1638.742602821663
4.49
3.2978e-05
9.029e-08
d
yr
n
.219680625486965
4.4208e-09
deg/d
Q
2.996681842206369
4.0203e-08
au
Orbit Determination Parameters
# obs. used (total)
271
data-arc span
6662 days (18.24 yr)
first obs. used
2000-12-06
last obs. used
2019-03-04
planetary ephem.
DE431
SB-pert. ephem.
SB431-N16
condition code
0
norm. resid. RMS
.57076
source
ORB
producer
Otto Matic
solution date
2019-Jul-13 16:38:39
Additional Information
Earth MOID
= 1.51743 au
Jupiter MOID
= 2.14571 au
T_jup
= 3.292
[ show covariance matrix ]
[
Ephemeris
|
Orbit Diagram
|
Orbital Elements
|
Mission Design
|
Physical Parameters
|
Discovery Circumstances
|
Close-Approach Data
]
Physical Parameter Table
Parameter
Symbol
Value
Units
Sigma
Reference
Notes
absolute magnitude
H
15.4
n/a
MPO418208
diameter
diameter
3.286
km
0.157
urn:nasa:pds:neowise_diameters_albedos::2.0[mainbelt] (http://adsabs.harvard.edu/abs/2011ApJ...741...68M)
geometric albedo
albedo
0.149
0.026
urn:nasa:pds:neowise_diameters_albedos::2.0[mainbelt] (http://adsabs.harvard.edu/abs/2011ApJ...741...68M)
226048 (2002 GO88)
Discovered 2002-Apr-10 by LINEAR at Socorro
Reference:
20091202/Numbers.arc
Last Updated:
2009-12-04
[ show close-approach data ]
[
Ephemeris
|
Orbit Diagram
|
Orbital Elements
|
Mission Design
|
Physical Parameters
|
Discovery Circumstances
|
Close-Approach Data
]
2019-Dec-14 09:04 UT
(server date/time)
Site Manager:
Ryan S. Park
Webmaster
:
Alan B. Chamberlin